Weather History for Monett, MO

Change the Weather History Date:

Thursday, January 31, 2013

  Actual Average (KJLN) Record (KJLN)
Temperature  
Mean Temperature 26 °F 36 °F  
Max Temperature 37 °F 47 °F 75 °F (1989)
Min Temperature 14 °F 26 °F -4 °F (1979)
Degree Days  
Heating Degree Days 40 29  
Month to date heating degree days 925  
Since 1 July heating degree days 2549  
Cooling Degree Days 0 0  
Month to date cooling degree days 0  
Year to date cooling degree days 0  
Moisture  
Dew Point 19 °F    
Average Humidity 75    
Maximum Humidity 93    
Minimum Humidity 56    
Precipitation  
Precipitation 0.00 in 0.07 in 0.60 in (1981)
Month to date precipitation 2.03  
Year to date precipitation 2.03  
Sea Level Pressure  
Sea Level Pressure 30.15 in    
Wind  
Wind Speed 8 mph (West)    
Max Wind Speed 22 mph    
Max Gust Speed 29 mph    
Visibility 10 miles    
Events Snow    
T = Trace of Precipitation, MM = Missing Value Source: NWS Daily Summary

Daily Weather History Graph

Daily Weather History Graph

Search for Another Location

Airport:

Trip Planner

Search our weather history database for the weather conditions in past years. The results will help you decide how hot, cold, wet, or windy it might be!

Date:

Astronomy

Jan. 31, 2013 Rise Set
Actual Time 7:18 AM CST 5:40 PM CST
Civil Twilight 6:51 AM CST 6:07 PM CST
Nautical Twilight 6:20 AM CST 6:39 PM CST
Astronomical Twilight 5:50 AM CST 7:09 PM CST
Moon 10:34 PM CST (1/31) 9:27 AM CST (1/31)
Length of Visible Light 11h 16m
Length of Day
10h 21m
Waning Gibbous, 79% of the Moon is Illuminated
Jan 31
Waning Gibbous
Feb 3
Last Quarter
Feb 10
New
Feb 17
First Quarter
Feb 25
Full

Hourly Weather History & Observations

Time (CST) Temp. Windchill Dew Point Humidity Pressure Visibility Wind Dir Wind Speed Gust Speed Precip Events Conditions
12:15 AM 23.0 °F 17.0 °F 19.4 °F 86% 30.02 in 10.0 mi WSW 4.6 mph - N/A   Clear
12:35 AM 23.0 °F 17.0 °F 19.4 °F 86% 30.01 in 10.0 mi SW 4.6 mph - N/A   Clear
12:55 AM 23.0 °F - 19.4 °F 86% 29.99 in 10.0 mi Calm Calm - N/A   Clear
1:15 AM 23.0 °F 18.4 °F 19.4 °F 86% 29.99 in 10.0 mi SSW 3.5 mph - N/A   Clear
1:35 AM 23.0 °F 17.0 °F 19.4 °F 86% 29.99 in 10.0 mi South 4.6 mph - N/A   Clear
1:55 AM 23.0 °F 17.0 °F 19.4 °F 86% 30.00 in 10.0 mi SW 4.6 mph - N/A   Clear
2:15 AM 23.0 °F 15.8 °F 19.4 °F 86% 30.00 in 10.0 mi SW 5.8 mph - N/A   Clear
2:35 AM 23.0 °F 17.0 °F 19.4 °F 86% 29.99 in 10.0 mi SSW 4.6 mph - N/A   Clear
2:55 AM 23.0 °F 17.0 °F 19.4 °F 86% 29.97 in 10.0 mi South 4.6 mph - N/A   Clear
3:15 AM 23.0 °F 17.0 °F 19.4 °F 86% 29.97 in 10.0 mi SSW 4.6 mph - N/A   Clear
3:35 AM 23.0 °F 15.8 °F 19.4 °F 86% 29.97 in 10.0 mi SSW 5.8 mph - N/A   Clear
3:55 AM 21.2 °F 12.6 °F 19.4 °F 93% 29.97 in 10.0 mi SSW 6.9 mph - N/A   Clear
4:15 AM 23.0 °F 14.7 °F 19.4 °F 86% 29.97 in 10.0 mi SW 6.9 mph - N/A   Clear
4:35 AM 23.0 °F 15.8 °F 19.4 °F 86% 29.98 in 10.0 mi SW 5.8 mph - N/A   Clear
4:55 AM 23.0 °F 14.7 °F 19.4 °F 86% 29.98 in 10.0 mi SSW 6.9 mph - N/A   Clear
5:15 AM 23.0 °F 14.7 °F 19.4 °F 86% 29.98 in 10.0 mi SSW 6.9 mph - N/A   Clear
5:35 AM 23.0 °F 13.9 °F 19.4 °F 86% 29.97 in 10.0 mi SSW 8.1 mph - N/A   Clear
5:55 AM 24.8 °F 16.1 °F 21.2 °F 86% 29.97 in 10.0 mi SSW 8.1 mph - N/A   Clear
6:15 AM 24.8 °F 16.1 °F 19.4 °F 80% 29.97 in 10.0 mi SSW 8.1 mph - N/A   Clear
6:35 AM 24.8 °F 16.9 °F 21.2 °F 86% 29.97 in 10.0 mi SSW 6.9 mph - N/A   Clear
6:55 AM 24.8 °F 16.1 °F 21.2 °F 86% 29.97 in 10.0 mi SSW 8.1 mph - N/A   Clear
7:15 AM 26.6 °F 16.8 °F 21.2 °F 80% 29.97 in 10.0 mi SSW 10.4 mph - N/A   Clear
7:55 AM 28.4 °F 19.1 °F 21.2 °F 74% 29.99 in 10.0 mi SW 10.4 mph - N/A   Clear
8:15 AM 30.2 °F 21.9 °F 23.0 °F 75% 30.01 in 10.0 mi SW 9.2 mph - N/A   Clear
8:35 AM 30.2 °F 21.3 °F 23.0 °F 75% 30.02 in 10.0 mi SW 10.4 mph - N/A   Clear
8:55 AM 32.0 °F 24.2 °F 23.0 °F 69% 30.03 in 10.0 mi SW 9.2 mph - N/A   Clear
9:15 AM 32.0 °F 24.2 °F 23.0 °F 69% 30.04 in 10.0 mi WSW 9.2 mph - N/A   Clear
9:35 AM 33.8 °F 26.4 °F 24.8 °F 70% 30.05 in 10.0 mi WSW 9.2 mph - N/A   Clear
9:55 AM 33.8 °F 25.8 °F 24.8 °F 70% 30.05 in 10.0 mi West 10.4 mph - N/A   Mostly Cloudy
10:15 AM 35.6 °F 28.6 °F 24.8 °F 65% 30.06 in 10.0 mi West 9.2 mph - N/A   Overcast
10:35 AM 37.4 °F 29.8 °F 26.6 °F 65% 30.07 in 10.0 mi West 11.5 mph 16.1 mph N/A   Mostly Cloudy
10:55 AM 37.4 °F 30.8 °F 24.8 °F 60% 30.08 in 10.0 mi West 9.2 mph - N/A   Scattered Clouds
11:15 AM 37.4 °F 30.8 °F 26.6 °F 65% 30.09 in 10.0 mi West 9.2 mph - N/A   Mostly Cloudy
11:35 AM 37.4 °F 29.3 °F 24.8 °F 60% 30.09 in 10.0 mi West 12.7 mph 17.3 mph N/A   Mostly Cloudy
11:55 AM 37.4 °F 29.3 °F 24.8 °F 60% 30.10 in 10.0 mi WNW 12.7 mph - N/A   Scattered Clouds
12:15 PM 37.4 °F 28.5 °F 23.0 °F 56% 30.10 in 10.0 mi NW 15.0 mph 19.6 mph N/A   Overcast
12:35 PM 37.4 °F 28.5 °F 24.8 °F 60% 30.12 in 10.0 mi NW 15.0 mph - N/A   Overcast
12:55 PM 35.6 °F 24.8 °F 23.0 °F 60% 30.13 in 10.0 mi NW 19.6 mph - N/A   Overcast
1:15 PM 33.8 °F 21.9 °F 23.0 °F 65% 30.15 in 10.0 mi NW 21.9 mph 28.8 mph N/A   Overcast
1:35 PM 33.8 °F 22.8 °F 23.0 °F 65% 30.14 in 10.0 mi NNW 18.4 mph 25.3 mph N/A   Overcast
2:15 PM 32.0 °F 20.5 °F 23.0 °F 69% 30.15 in 10.0 mi NNW 18.4 mph 23.0 mph N/A   Overcast
2:35 PM 32.0 °F 20.1 °F 23.0 °F 69% 30.16 in 7.0 mi NNW 19.6 mph 24.2 mph N/A Snow Light Snow
2:55 PM 28.4 °F 18.0 °F 26.6 °F 93% 30.18 in 1.5 mi NNW 12.7 mph 17.3 mph N/A Snow Light Snow
3:15 PM 28.4 °F 18.0 °F 24.8 °F 86% 30.18 in 3.0 mi NNW 12.7 mph 19.6 mph N/A Snow Light Snow
3:35 PM 28.4 °F 18.0 °F 26.6 °F 93% 30.21 in 0.8 mi NNW 12.7 mph 19.6 mph N/A Snow Light Snow
3:55 PM 26.6 °F 14.3 °F 23.0 °F 86% 30.22 in 1.0 mi NNW 16.1 mph 20.7 mph N/A Snow Light Snow
4:15 PM 26.6 °F 15.2 °F 21.2 °F 80% 30.22 in 10.0 mi NW 13.8 mph 17.3 mph N/A Snow Light Snow
4:35 PM 26.6 °F 15.2 °F 19.4 °F 74% 30.24 in 10.0 mi NW 13.8 mph - N/A   Overcast
4:55 PM 26.6 °F 14.7 °F 17.6 °F 69% 30.25 in 10.0 mi NW 15.0 mph - N/A   Mostly Cloudy
5:15 PM 24.8 °F 14.0 °F 15.8 °F 69% 30.25 in 10.0 mi NNW 11.5 mph - N/A   Scattered Clouds
5:35 PM 23.0 °F 13.9 °F 15.8 °F 74% 30.26 in 10.0 mi NW 8.1 mph - N/A   Clear
5:55 PM 23.0 °F 13.9 °F 15.8 °F 74% 30.27 in 10.0 mi NNW 8.1 mph - N/A   Clear
6:15 PM 23.0 °F 14.7 °F 15.8 °F 74% 30.28 in 10.0 mi NNW 6.9 mph - N/A   Clear
6:35 PM 23.0 °F 13.9 °F 14.0 °F 68% 30.29 in 10.0 mi NW 8.1 mph - N/A   Clear
6:55 PM 21.2 °F 11.7 °F 12.2 °F 68% 30.31 in 10.0 mi NW 8.1 mph - N/A   Clear
7:15 PM 21.2 °F 12.6 °F 12.2 °F 68% 30.32 in 10.0 mi NW 6.9 mph - N/A   Clear
7:35 PM 21.2 °F 13.6 °F 12.2 °F 68% 30.34 in 10.0 mi WNW 5.8 mph - N/A   Clear
7:55 PM 19.4 °F 10.4 °F 12.2 °F 74% 30.35 in 10.0 mi NW 6.9 mph - N/A   Clear
8:15 PM 21.2 °F 11.7 °F 10.4 °F 63% 30.35 in 10.0 mi NNW 8.1 mph - N/A   Clear
8:35 PM 19.4 °F 9.5 °F 8.6 °F 63% 30.37 in 10.0 mi NW 8.1 mph - N/A   Clear
8:55 PM 19.4 °F 10.4 °F 8.6 °F 63% 30.38 in 10.0 mi NNW 6.9 mph - N/A   Clear
9:15 PM 19.4 °F 9.5 °F 8.6 °F 63% 30.39 in 10.0 mi NW 8.1 mph - N/A   Clear
9:35 PM 19.4 °F 8.6 °F 8.6 °F 63% 30.39 in 10.0 mi NNW 9.2 mph - N/A   Clear
9:55 PM 19.4 °F 9.5 °F 8.6 °F 63% 30.40 in 10.0 mi NNW 8.1 mph - N/A   Clear
10:15 PM 17.6 °F 8.2 °F 8.6 °F 68% 30.41 in 10.0 mi NNW 6.9 mph - N/A   Clear
10:35 PM 17.6 °F 8.2 °F 8.6 °F 68% 30.41 in 10.0 mi NNW 6.9 mph - N/A   Clear
10:55 PM 15.8 °F 7.2 °F 8.6 °F 73% 30.41 in 10.0 mi North 5.8 mph - N/A   Clear
11:15 PM 14.0 °F 5.1 °F 6.8 °F 73% 30.41 in 10.0 mi North 5.8 mph - N/A   Clear
11:35 PM 14.0 °F 5.1 °F 6.8 °F 73% 30.41 in 10.0 mi NNW 5.8 mph - N/A   Clear
11:55 PM 14.0 °F 3.9 °F 6.8 °F 73% 30.42 in 10.0 mi North 6.9 mph - N/A   Clear